User: anonymous   Login
Location: Oshawa
(43.9000°N, 78.8670°W)
Time: 07:45:27
(UTC-04:00)
Language:

S-56A Canister/Altair - Orbit

View from above orbital plane
View from above orbital plane
View from above satellite
View from above satellite

Ground track
Ground track

The orbit data is extracted from the following two-line orbital elements,

1 00082U 61004B   15216.21441475  .00000003  00000-0  45217-4 0  9990
2 00082 038.8548 303.9886 1170998 139.1019 230.3735 12.25705404589458
Epoch (UTC): 04 August 2015 05:08:45
Eccentricity: 0.1170998
inclination: 38.8548°
perigee height: 637 km
apogee height: 2498 km
right ascension of ascending node: 303.9886°
argument of perigee: 139.1019°
revolutions per day: 12.25705404
mean anomaly at epoch: 230.3735°
orbit number at epoch: 58945

The dashed part of the orbit path shows where the satellite is in the earth's shadow,  

DLR